Location: Observatory
(52.1446°N, 0.4624°W)
Time: 05:14:23
(UTC+00:00)

ISS - Pass Details

Date: 05 December 2019
Orbit: 411 x 421 km, 51.6° (Epoch: 15 December)

Event Time Altitude Azimuth Distance (km) Brightness Sun altitude
Rises 16:33:39 0° 270° (W) 2,355 1.3 -6.3°
Reaches altitude 10° 16:35:44 10° 270° (W) 1,493 0.2 -6.6°
Maximum altitude 16:39:06 84° 182° (S) 425 -3.7 -7.0°
Drops below altitude 10° 16:42:28 10° 94° (E) 1,499 -1.5 -7.5°
Enters shadow 16:43:04 - 94° (E) 1,751 -1.1 -7.6°
